Location: Bucharest
(44.4268°N, 26.1025°E)
Time: 19:43:39
(UTC+03:00)

SPROUT - Pass Details

Date: 04 July 2022
Orbit: 588 x 598 km, 97.9° (Epoch: 18 August)

Event Time Altitude Azimuth Distance (km) Brightness Sun altitude
Exits shadow 02:10:48 69° 207° (SSW) 633 ? -21.7°
Maximum altitude 02:11:11 76° 256° (WSW) 611 ? -21.7°
Drops below altitude 10° 02:15:22 10° 344° (NNW) 1,927 ? -21.5°
Sets 02:17:33 0° 346° (NNW) 2,834 ? -21.4°
